TIMESTAMP,CO2_1_1_1,H2O_1_1_1,TAU_1_1_1,TAU_SSITC_TEST_1_1_1,H_1_1_1,H_SSITC_TEST_1_1_1,LE_1_1_1,LE_SSITC_TEST_1_1_1,FC_1_1_1,FC_SSITC_TEST_1_1_1,WD_0_0_1,WS_0_0_1,WS_MAX_0_0_1,U_SIGMA_0_0_1,V_SIGMA_0_0_1,W_SIGMA_0_0_1,USTAR_0_0_1,MO_LENGTH_0_0_1,ZL_0_0_1,FETCH_MAX_0_0_1,FETCH_70_0_0_1,FETCH_80_0_0_1,FETCH_90_0_0_1,PA_0_0_1,RH_0_0_1,TA_0_0_1,VPD_0_0_1,T_SONIC_0_0_1,T_SONIC_SIGMA_0_0_1
[yyyymmddHHMMSS],[mmolCO2 mol-1],[mmolH2O mol-1],[kg m-1 s-2],[#],[W m-2],[#],[W m-2],[#],[umolCO2 m-2 s-1],[#],[Decimal degrees],[m s-1],[m s-1],[m s-1],[m s-1],[m s-1],[m s-1],[m],[#],[m],[m],[m],[m],[kPa],[%],[deg C],[hPa],[deg C],[deg C]
20220601020000,424.41480678535692,13.339164281287585,0.66400121275700630,0,-15.943312754673361,0,36.937278484318917,0,4.9921836319566628,0,260.74173320838042,3.9163092561188435,11.094544042491309,1.8491138735282726,1.5939088693749306,1.0651568928264095,0.77347383573574657,2407.0279904981830,7.8935517472181818E-003,96.934982460565138,177.22806376490402,212.09672764751070,265.51993470140025,93.092178588046565,61.963103448275859,17.584827586206870,7.6248307581514068,17.961540035576490,0.21297700231921990
20220601023000,423.84709940397943,12.868972161735034,1.3809592802053057,0,-34.394865960421363,1,25.733989929617223,0,4.5131096874848380,0,267.76197097217829,5.4444775714054865,15.568620837150972,2.3155046861647364,1.7790789474488677,1.2897790868948849,1.1132788231624426,3327.8198417742824,5.7094436908789615E-003,111.30784986365836,203.50624936870491,243.54500427300869,304.88944524826320,93.140865195963542,63.436000000000000,16.655333333333317,6.9106439580297732,16.922512988620269,0.24735439690096486
20220601030000,423.87415253370443,12.788302928689916,1.2061448490415694,0,-16.293123444565214,2,7.1004149880750766,2,4.0210343469524066,0,266.87976514206258,5.6210772959462227,13.972837228092970,2.1292840801122703,1.7949504265837939,1.3053627332256830,1.0391783343314682,5715.6593974252282,3.3242008802272329E-003,104.33307291295651,190.75413261180708,228.28397745106685,285.78445060651359,93.191822857855911,65.239333333333335,16.125000000000000,6.3516386674302723,16.397288946363744,0.20019641923321668
20220601033000,424.20296454405229,12.229889056108718,1.2353694172411827,0,-14.310852987824179,2,10.349951343753158,1,4.5732988761332676,0,274.52282112180342,4.6227324640245833,12.823740358497259,2.2196932347275200,1.7652616423705041,1.2264096994158349,1.0493482235441638,6702.3855276090617,2.8348115639921807E-003,110.53050234530573,202.08501018288121,241.84414395713068,302.76016996421129,93.247816275607633,66.790000000000006,15.070999999999970,5.6719853286793844,15.295480799357165,0.26773673531734082
20220601040000,424.35610194161148,12.024045922565897,1.0848064672794981,0,23.588830027810090,1,26.499851702870032,0,4.6813826968741745,0,275.02961266359370,4.6195258840163635,14.716625279601210,2.1597696891106017,1.6659954032928026,1.1246222986970169,0.98220016740900296,-3335.0434128402603,-5.6970772634767049E-003,112.35943601369759,205.42888423717730,245.84590716277299,307.76990263117864,93.275445639756953,68.063999999999993,14.519333333333350,5.2637770902351395,14.739159592522583,0.23821451751809819
20220601043000,424.20160127850244,11.667435647751445,1.1662259834489481,0,46.488077514010591,1,31.290467111088489,0,4.4220243857561776,0,280.99299294380779,5.1859705675818848,13.703562926568669,2.2776013079491446,1.8521834402388337,1.3669526339235158,1.0165899793566440,-1876.6257177677110,-1.0124554843360525E-002,98.802694013906262,180.64283616045947,216.18333805995141,270.63588600294332,93.307865536675351,69.943666666666672,13.640333333333331,4.6794816781068995,13.755650209215048,0.35698591280475395
20220601050000,424.90557007611170,11.078762512550243,1.1076524651417616,0,-15.326552173251191,2,-122.90248292223067,2,1.3591014769516334,2,282.88268758851262,4.4700102057743942,13.443352057121524,2.1750694651078293,1.8423173761479634,1.2247931761871778,0.98913493031576538,5244.7152846836889,3.6226942681686293E-003,105.53806429828985,192.95724117648751,230.92053572121063,289.08510869534774,93.358231215060769,69.581999999999994,12.934666666666658,4.5226616137468660,13.016131793551949,0.25070668027302451
20220601053000,424.33770197601581,9.7533078189488229,0.78835250466267959,0,5.2415964909946675,1,19.033714613916551,0,3.0355914991063662,0,289.69216791781611,4.2076737221802372,11.527467155420139,1.9789553532605497,1.4017155197700866,0.99174198310651229,0.83297626918421785,-9160.5927110291959,-2.0741016001207353E-003,108.90355179820138,199.11042569351116,238.28432604283395,298.30370035887256,93.416209899088543,64.206000000000003,12.227666666666664,5.0807201300775855,12.192218922932966,0.12286461428856339
20220601060000,425.49018649942542,9.8732724227443178,0.43455164482173358,0,-13.142471307434445,1,9.5701679617135120,1,2.8061538345911066,1,297.77094850354200,2.9846305943712008,8.3144537230260731,1.3798938139296224,1.0973172114751486,0.79033492758344881,0.61778306872800937,1491.0084494383725,1.2743053204800315E-002,102.81932794413923,187.98652402461317,224.97185682929194,281.63806861858217,93.462922054500410,67.077666666666673,11.757000000000005,4.5303276720643568,11.763736470455569,0.21759275867915875
20220601063000,424.96965341684961,9.6669975017159437,0.93628936802944107,0,13.661864173328414,2,19.921565652468061,0,4.7790924672557216,0,288.16456566454491,4.3506393714605123,13.209952727455191,2.0530572870220198,1.3768680155672373,1.0659788692201404,0.90549175451933872,-4516.6630642218488,-4.2066454215958669E-003,109.89137896210532,200.91648880044258,240.44572230687703,301.00951200084347,93.476893333116308,69.116333333333330,10.988666666666688,4.0388760191957394,10.935685227288104,0.35289282899247781
20220601070000,424.48045660471178,9.7200454696962186,0.51358438541645202,0,-7.9805044356492694,0,-3.5596302449293677,2,1.4952392749412537,0,286.94968666052932,4.2768408849990802,11.051622743263735,1.6748379309865167,1.2947594600622307,0.95212521822240348,0.66977381926270196,3129.5801733483531,6.0711018563463764E-003,94.502256639514201,172.78026508591688,206.77384861239648,258.85632178524133,93.494768577907990,72.729333333333329,10.308999999999969,3.4084602618474502,10.338009461720787,7.4305790073636482E-002
20220601073000,424.36824159550764,9.4956430248421828,0.96869651073296503,0,-17.377938382888892,2,-43.853539582264482,2,1.6279415149162375,1,288.56583791959218,5.1658685610897166,14.803060683344258,2.2468963380552358,1.9069180324809418,1.1316493122864759,0.91956381827018463,3719.3772291970895,5.1083820836590899E-003,106.05982560546923,193.91118725324537,232.06216553386216,290.51429375006569,93.497322561197919,71.736333333333334,10.165666666666652,3.4988825223538105,10.096857692294634,0.17876408931693749
20220601080000,424.75517042647425,8.9896588395110832,0.74911438171085432,0,-1.6510294637877383,2,7.8219145403855332,1,1.8782971460859541,1,296.02735745325589,3.7380881736016858,9.5919462739162267,1.7863010653439153,1.2235375571252765,0.91198139514929455,0.80729343664152076,26491.078628018888,7.1722258903811570E-004,113.57722519891762,207.65539126169952,248.51046741329733,311.10561587661340,93.521647040147570,71.793999999999997,9.3416666666666401,3.3038870166496714,9.3372094268798946,0.22283699555962394
20220601083000,425.00819751917220,8.8041528729202998,0.45159596101716248,0,-15.447537249669935,1,4.8990803559434184,1,1.8779709294400015,0,301.43951662382528,3.7627372515975535,9.3706294703010435,1.4562472210513047,1.0450016180648187,0.75326648024667908,0.62584812696982994,1319.2934000049479,1.4401648640043785E-002,107.96205725039397,197.38907338583417,236.22430697005842,295.72480093051348,93.537669814887153,74.197666666666663,8.5480000000000018,2.8645693073833933,8.5447149675158016,0.21856567912300556
20220601090000,425.24368611622805,9.0339241220271962,0.75971142010387283,0,-23.674757185763966,0,6.8878731155412769,0,4.1832978342379503,0,286.35784297648968,4.1265002203063936,10.832973325853050,1.6770131301237714,1.1715443536693981,0.94344432743404283,0.81147333130996047,1876.6747683941892,1.0124290217988966E-002,110.99445394538020,202.93326167759085,242.85928434984345,304.03100527494649,93.550506134548613,77.041333333333327,8.3753333333333444,2.5191958460896742,8.4007288182576758,8.9762461599752499E-002
20220601093000,425.64709157663344,9.2160365269247890,0.77509052936498335,0,-19.300519853160843,1,13.591910420537216,2,3.8218423127216332,1,292.32187112696533,4.6742296896374187,11.782160390264698,1.9286164785592437,1.3138494765526934,0.99755250775587578,0.81941952510504767,2370.5956450332801,8.0148632854394972E-003,106.98215318165387,195.59749622380383,234.08024668229999,293.04069187368913,93.563614729817715,79.331000000000003,8.2400000000000091,2.2472127749895630,8.2279083582560588,0.11345736357146947
20220601100000,426.13809209547964,9.4618364557922110,0.83325799785093857,0,-3.1817130008582071,0,-1.0594279497389905,1,2.7589848647136499,0,296.37973637359960,4.2750739002236031,11.779893499033898,1.8015042298614432,1.3658081874219139,0.99157060686356202,0.84927204368782139,16014.218557419099,1.1864456533970335E-003,110.61994718930896,202.24854388468896,242.03985203110435,303.00517324926142,93.594342187717018,82.353333333333339,8.0819999999999936,1.8981171475023109,8.1053037228054450,5.6413357319417823E-002
20220601103000,426.29154467287748,9.3633199702803918,0.79847234177265958,0,-1.3815142284965849,2,5.1147752684610897,1,2.6677723832428999,0,296.83232446960790,3.9353351883803720,12.498731159813516,1.9144589625753612,1.2718730672293106,0.97620353211076882,0.83115029598615109,34581.473873563322,5.4942713169102452E-004,110.09465913012890,201.28814978047401,240.89050557643586,301.56632787442828,93.636947110590953,81.536666666666662,8.0813333333333048,1.9858696896069286,8.0893094738347031,5.2477721626995509E-002
20220601110000,426.61884204878396,9.2214992174057198,0.84456226609920659,0,15.738112835493634,0,12.715528582113945,0,1.2223243047795853,0,302.21589919785583,4.5013162970039735,12.195767507282630,1.8933934943023614,1.5004835497396944,0.98255988617476542,0.85451314096914954,-3299.9273984245492,-5.7577024297779935E-003,111.98056971386582,204.73619580787599,245.01693602799270,306.73212913972708,93.682643185112852,80.546999999999997,8.0436666666666952,2.0869611558715362,7.9873617621527728,7.7474334356922192E-002
20220601113000,425.92372077213241,8.9706663517820751,1.1012977850054111,0,37.750224363944021,0,46.822320895328325,1,1.5540707858374352,1,309.37247463024164,3.7879111029266541,13.083616951257474,1.9621427650058123,1.4314419681808226,1.0320048469453773,0.97516934945385358,-2045.2846714435293,-9.2896603906927559E-003,119.66676320313132,218.78900889193582,261.83456415107014,327.78580389746850,93.728609975076751,79.424333333333337,7.8519999999999754,2.1787815911016413,7.7549962843463049,0.11654099389581227
20220601120000,425.47249891115757,8.8212367840895425,1.0014014002061822,0,36.402639721421679,0,18.382098741883542,0,-2.1009318361046194,0,309.70972815637685,4.1192392246915110,12.032553481683518,1.8462124325279152,1.4851001584184773,1.0067389827845592,0.92950828272447394,-1837.1798951575586,-1.0341937689433804E-002,117.46919769520466,214.77115826587496,257.02622312504371,321.76633151138628,93.759865576171876,78.776333333333326,7.7306666666666501,2.2288846259299500,7.6130142220391122,9.2925715383620697E-002
20220601123000,424.58847044036884,8.6141312285573939,0.76851132005251677,0,41.093418490257307,0,17.396946347414808,0,-4.3149079569211430,0,312.82271192080771,3.9909084871445937,12.251208481005989,1.9649424768581021,1.4773378515380728,1.0174020186884918,0.81432331736574426,-1094.4974388791404,-1.7359565518451678E-002,104.78480759109989,191.58004767683929,229.27238684225946,287.02182187536164,93.785808551649296,76.274333333333331,7.8596666666666692,2.5136516630277730,7.6830177078247743,0.13635231674041920
20220601130000,423.23678970108710,8.5085438561883500,0.84971928604903046,0,99.025104161503748,0,36.121384957322171,0,-6.4748791462975381,0,313.99266571316548,4.5265524941991711,11.071877709017986,1.8064989715858817,1.6160799265542143,1.0046253570030457,0.85682999252655745,-529.05625100716588,-3.5913005401277551E-002,110.24713681709487,201.56692762251183,241.22413145250076,301.98398788177491,93.777285459635408,73.534666666666666,8.2146666666666874,2.8724641585064457,7.9084815555148680,0.25599434104080554
20220601133000,422.06914158917692,8.2039635354000193,0.73421405676295692,0,178.33281026348064,0,35.618512849238520,1,-8.7138045621783355,0,311.06817588796815,3.8057770336172880,10.837473534217297,1.7239979964465693,1.4636190474887509,0.87570991590871006,0.79734986533075691,-236.72060287270565,-8.0263398155576163E-002,116.16781641514022,212.39181823164591,254.17876079599566,318.20164656758999,93.769613571831599,67.919333333333327,8.8476666666666688,3.6345638044182227,8.4464255201551168,0.46057019082442319
20220601140000,421.25190459561708,7.7133100820665828,1.0394926009288710,0,225.36556352128923,0,90.407919869975544,0,-9.3747380526605841,0,321.37545198951557,3.9292796798069691,10.069035529220736,1.9276071308143663,1.5527333604071438,0.97748104303721051,0.94997026055302725,-316.79069549690939,-5.9976509001304822E-002,122.38726583851955,223.76295536923902,267.78710772074595,335.23768209218667,93.781202163628478,60.440333333333335,9.6656666666666524,4.7358598131446596,9.1923171039157410,0.42417685565451768
20220601143000,420.47548283000367,7.3441730226786444,0.89418297822131465,0,223.83799217505114,0,125.39867871711638,0,-8.1229627273169918,0,315.25288342233966,4.0370479748779937,11.472262358434509,1.7777998499891552,1.3204478913775690,0.95390570595176616,0.88213457563804865,-255.42021338638517,-7.4387221544043897E-002,117.61925339849236,215.04550794929682,257.35454962621282,322.17735733021004,93.803758038641050,54.600000000000001,10.454666666666640,5.7298443832614145,9.9308287058428277,0.45555399195229951
20220601150000,419.79323087070082,7.2593473596950568,0.99956220638283133,0,239.65613837480365,0,128.18415632141028,0,-9.6402427121342278,0,320.26458159015101,4.0949733675622602,12.484755233655457,2.0291321655908745,1.5316277882853722,1.0176972889223963,0.93401809341012310,-283.18790689339727,-6.7093260472991606E-002,116.90800168785400,213.74511298015145,255.79830897365522,320.22912870344175,93.807334047876253,51.030666666666669,11.297000000000025,6.5364779499137233,10.692021076501533,0.49925870847252651
20220601153000,418.93989665203355,6.7991057485031190,1.6596851555863164,0,378.09084414076796,0,180.37559844875204,0,-12.718677825454243,0,317.35811749649667,4.4239559236854324,12.165322616782827,2.2473488125355843,1.5531241104855125,1.1629097582255667,1.2044798989325705,-385.00517815757291,-4.9349985605190431E-002,128.78276144421565,235.45596107515726,281.78064911540201,352.75593538426676,93.835881977647574,46.018666666666668,11.874333333333311,7.4859477508054963,11.096495417277083,0.56845297254321292
20220601160000,418.88385240766360,5.9670572628997220,1.5997991145711905,0,357.34180526185571,0,127.30470331924917,0,-11.453953592917420,0,335.14313596144837,4.6691417573887142,12.995464406996286,2.3157729559274935,1.8318113895025545,1.2358616700240574,1.1828804878244032,-385.82350973435257,-4.9245314296896762E-002,120.90150410912733,221.04650906851055,264.53621528883986,331.16795053236967,93.848578289306900,39.633000000000003,12.162333333333322,8.5319250002461509,11.326047767469163,0.51835899918343342
20220601163000,418.85964980455282,5.6290204773317978,1.8893249030047385,0,349.44365054650581,0,135.36368529745644,0,-10.033489629664299,0,328.72822790895600,5.4179762089764614,15.266060210416811,2.7936725422950173,1.8875793440646007,1.2812293374730821,1.2856795330088393,-506.59935399097174,-3.7504982685664073E-002,125.56239312874746,229.56810071068602,274.73438403964980,343.93484764965626,93.853439849175359,37.034666666666666,12.307333333333304,8.9844722004232089,11.379973637898729,0.51221153606625047
20220601170000,418.45228641593752,5.7264968096996141,1.6092382174327557,0,333.51271949213469,0,121.27591094671793,0,-9.1440960828265858,0,326.58023574606932,4.6924687408535668,13.292473975452337,2.4798344858746537,1.8092252125453583,1.2155896612417885,1.1876346359408816,-418.38064540434385,-4.5413190616495791E-002,122.90557572048209,224.71059113992484,268.92118570870389,336.65741315852040,93.847564044053811,36.483666666666664,12.796333333333337,9.3586982959461640,11.919447274949789,0.52773560810805564
20220601173000,418.17792209058405,5.6932143671782809,0.85429157719998716,0,293.38814476830549,0,127.54252656121344,0,-8.8916117533814614,0,347.09517752050147,3.8687208488361482,11.165488283054943,1.8616708551958459,1.4984200292447880,0.95260817114148988,0.86641687220970343,-184.61317279093444,-0.10291789969677076,116.06598960252501,212.20564634218908,253.95596059327985,317.92272715222367,93.812979255859375,34.808000000000000,13.420999999999992,10.005808314957724,12.585093485514278,0.66395464456849329
20220601180000,418.05142497547422,5.6414493786183026,1.1540901325822310,0,342.80682818256469,0,144.21876419175064,0,-8.8936670510989266,0,335.33342853176441,3.8976794948645468,11.740477801780568,1.9372747775427555,1.6934719923201125,1.0786860690818987,1.0079019715626341,-248.69997115362148,-7.6397274643283886E-002,118.59693889699396,216.83302885735449,259.49375561394771,324.85538937943704,93.796396670200835,33.491000000000000,13.870666666666693,10.511038630204668,12.975371526158710,0.62471055922324226
20220601183000,417.76931332207164,5.6823323451614378,1.1971996697178779,0,435.05901573703147,0,184.57509180788017,0,-11.433371184035774,0,335.31577065888052,3.1275159365606080,11.367996917949805,1.9158755678082278,2.0304066030391237,1.0611586320438928,1.0275073398783809,-207.58534038239938,-9.1528621264871171E-002,122.02774817898087,223.10564242532578,267.00047200695013,334.25290752410388,93.769977714754759,32.758666666666670,14.318666666666672,10.939992457179414,13.493119154963040,0.67091006636725559
20220601190000,417.50833195339612,5.9076584289077338,1.2212072005932904,0,469.65197609218978,0,230.65284824843565,0,-11.720211557475039,0,337.94732459568797,2.8746120557433428,9.9361222265474538,1.7280579790857440,1.4457235404051161,1.0989581514105848,1.0389766445892774,-198.79633674093114,-9.5575201794389997E-002,119.71666337070553,218.88024231310365,261.94374725486711,327.92248818728393,93.756533000628536,32.738999999999997,14.927999999999997,11.382333487284304,14.165167468287564,0.66390314018388064
20220601193000,417.91554395919388,5.8758244732368450,0.65885060999112366,0,281.37194757975846,0,84.754392997951342,0,-7.7647776608186501,0,330.40840342943460,2.9457147958147676,9.0135013973742666,1.6277391504937349,1.6306711809719880,0.87890277332645217,0.76323151194166017,-131.51285550873715,-0.14447256830141386,111.84775369518893,204.49336576623810,244.72633048781017,306.36832548792643,93.730909135633695,32.567666666666668,14.921333333333337,11.406428061354834,14.174512086656364,0.59370942154650908
20220601200000,417.73803949154251,5.9140970826547639,0.18789794395764950,0,277.88060679350156,0,119.54403024331941,0,-8.9100282049039308,0,333.90493874251547,2.4060035837631748,7.7147701983156391,1.4997650280006447,1.1890694602464260,0.75533586934305519,0.40796702020537967,-20.332955250559095,-0.93444360477198984,76.496727710003299,139.86041563385376,167.37719666514462,209.53638852406982,93.699650656555661,31.870333333333335,15.353666666666697,11.849296278536203,14.547449956666924,0.61257842218577363
20220601203000,417.50962015389098,6.1338409438052217,0.51057374397858857,1,292.51947619161626,0,146.44504679434647,0,-8.8864991145611416,0,331.88561170427931,1.7095510035050827,7.0662884195555389,1.3328197341607724,1.4712201346875351,0.75416099673207637,0.67297709542413664,-86.695663036821458,-0.21915744495696748,114.30990717348314,208.99496758813584,250.11359814347395,313.11254531638167,93.684261257161467,32.343333333333334,15.690333333333342,12.023791764948399,15.034912936740511,0.61881391878991987
20220601210000,417.08553784873197,6.3439760619630965,0.71902955645570199,0,302.89016082715852,0,201.60400998186219,0,-7.7543455305556686,0,302.76145092112051,1.8862450457067732,7.0531833993856896,1.3142252732269135,1.5018456163427203,0.80618184226520551,0.79972344294349207,-140.48903054940982,-0.13524187565176288,124.41144996177698,227.46380952696805,272.21608493620687,340.78223600438827,93.664633081597216,31.963333333333331,16.399666666666690,12.651575603382499,15.743772898356212,0.59479863200685312
20220601213000,417.23733886460786,6.3808080657646933,0.19738617920750842,1,273.55617008474968,1,179.39246399032513,1,-8.7086375359903005,1,10.877045662332620,1.0315186859713759,5.4944256533729030,1.0582811205120843,1.3735338077743642,0.68796656404297218,0.41913292762291210,-22.385995293531721,-0.84874492962526082,84.233036991210753,154.00485636919547,184.30447968477782,230.72733820017564,93.621325018446171,32.070000000000000,16.430999999999983,12.656965566477751,15.883067962646521,0.63032012694186257
20220601220000,416.81423162897158,6.6127059511538100,0.57861507540389134,0,177.97599057195703,0,78.893826959138096,0,-6.6773727004070240,0,317.24129311440561,2.0665276998421680,7.4516583118971074,1.4295665413436967,0.97491547475443618,0.69923204598943411,0.71838956211582428,-173.25150017492766,-0.10966716005815927,127.95163846704010,233.93640319980227,279.96212643909877,350.47936078728605,93.611884950520832,32.040333333333336,17.005999999999972,13.133512601661096,16.417312608506961,0.45521076632669366
20220601223000,416.33000072684933,6.9249600851458153,0.29058120972704699,1,174.69613151310318,0,120.22857206098197,0,-5.3427455119866876,0,320.76064431681050,1.5540849901066038,6.3614114870701588,1.2316543682654815,1.0850722870835707,0.64142062197628635,0.50942194806241237,-62.943316091658744,-0.30185889749329370,104.13643039111086,190.39460736595760,227.85371755581406,285.24581627415364,93.616724027777778,32.813000000000002,17.359333333333325,13.277811672484132,16.844901070488845,0.42836620811102988
20220601230000,416.28891581854464,7.0375346703122927,0.32427848570576534,0,97.125601615562573,0,93.268306772645801,0,-6.9845061476243702,0,309.50203769781820,1.3296221277435172,5.9886022138428245,1.1144841701160262,1.1995952297858248,0.64407519321063911,0.53829242870612259,-133.56802598782369,-0.14224961295551433,108.47265218561449,198.32260377331954,237.34150441689061,297.12339956247558,93.608379027357216,33.100000000000001,17.475333333333310,13.318333186998165,17.048152151488296,0.29159794221385699
20220601233000,416.29188625615865,6.7818270391685402,0.59937760307089294,0,7.1841431209395745,1,167.15823435083013,1,-3.4587898592195883,0,273.15995276034437,2.7842127032783424,9.1291396586572287,1.4302877054470549,1.4946691404013239,0.69133406047712098,0.73189548513265212,-4538.8253663199748,-4.1861050969240025E-003,131.05807690719851,239.61596341613716,286.75910943813193,358.98837694273169,93.610461834418402,31.722000000000001,17.562999999999988,13.668089286391474,17.088768904792005,0.19518884100163172
20220602000000,416.00123096258278,6.9933667834799120,9.9383082485529892E-002,0,-10.898264571051644,1,122.43130954236914,1,-2.7052204131169573,0,319.86793374233110,0.95961769699281019,4.0313856810212725,0.62797512556883972,0.86033949909113594,0.36641963566804497,0.29771294079176419,201.38568956659702,9.4346326399308608E-002,106.04985501477549,193.89295783350039,232.04034957428618,290.48698275745255,93.614405748263891,34.027000000000001,16.940333333333342,12.696617690338572,16.716396009657160,0.11762286870266536
